This is the latest recevied weather packets stored in our database for station/object VE9LJW. If no packets are shown the sender has not sent any weather packets the latest 10 day(s).
| Time | Temp. | Humidity | Pressure | Rain* | Wind** | Luminosity | Snow |
|---|---|---|---|---|---|---|---|
| 1777806008 | 8.89° C | 99% | 1006.5 hPa | 0 mm | - | 15 W/m² | - |
| 1777805704 | 8.89° C | 99% | 1006.8 hPa | 0 mm | - | 17 W/m² | - |
| 1777805402 | 8.33° C | 99% | 1007 hPa | 0 mm | - | 15 W/m² | - |
| 1777805100 | 8.33° C | 99% | 1006.8 hPa | 0 mm | - | 21 W/m² | - |
| 1777804797 | 8.89° C | 99% | 1006.6 hPa | 0.51 mm | - | 16 W/m² | - |
| 1777804495 | 8.89° C | 99% | 1006.3 hPa | 0.51 mm | - | 13 W/m² | - |
| 1777804192 | 8.89° C | 99% | 1006.4 hPa | 0 mm | - | 22 W/m² | - |
| 1777803889 | 8.89° C | 99% | 1006.7 hPa | 0 mm | - | 39 W/m² | - |
| 1777803585 | 8.89° C | 99% | 1006.8 hPa | 0 mm | - | 17 W/m² | - |
| 1777803283 | 8.89° C | 99% | 1006.8 hPa | 0.51 mm | - | 6 W/m² | - |
| 1777802979 | 8.89° C | 99% | 1006.9 hPa | 0.51 mm | - | 2 W/m² | - |
| 1777802677 | 8.89° C | 99% | 1007 hPa | 0.51 mm | - | 4 W/m² | - |
| 1777802374 | 8.89° C | 99% | 1007.3 hPa | 0.51 mm | - | 7 W/m² | - |
| 1777802072 | 8.89° C | 99% | 1007.4 hPa | 0.51 mm | - | 7 W/m² | - |
| 1777801770 | 8.89° C | 99% | 1007.5 hPa | 0 mm | - | 4 W/m² | - |
| 1777801467 | 8.89° C | 99% | 1007.2 hPa | 0.51 mm | - | 1 W/m² | - |
| 1777801163 | 8.89° C | 99% | 1007.3 hPa | 0.51 mm | - | 1 W/m² | - |
| 1777800860 | 8.89° C | 99% | 1007.3 hPa | 0.51 mm | - | 0 W/m² | - |
| 1777800555 | 8.89° C | 99% | 1007.1 hPa | 0.51 mm | - | 0 W/m² | - |
| 1777800252 | 8.89° C | 99% | 1007.4 hPa | 0.51 mm | - | 0 W/m² | - |
| 1777799948 | 8.89° C | 99% | 1007.6 hPa | 0.51 mm | - | 0 W/m² | - |
| 1777799644 | 8.89° C | 99% | 1007.4 hPa | 0.51 mm | - | 0 W/m² | - |
| 1777799341 | 8.89° C | 99% | 1007.5 hPa | 0.51 mm | - | 0 W/m² | - |
| 1777799036 | 8.89° C | 99% | 1007.6 hPa | 1.27 mm | - | 0 W/m² | - |
| 1777798732 | 8.89° C | 99% | 1007.5 hPa | 1.27 mm | - | 0 W/m² | - |
* Rain latest hour (hover to see other rain measurements)
** Current wind speed in m/s (hover to see current wind gust speed)